MPEC 1996-T07: 1996 TD9

The following Minor Planet Electronic Circular may be linked-to from your own Web pages, but must not otherwise be redistributed electronically.


Read MPEC 1996-T06 Read MPEC 1996-T08


M.P.E.C. 1996-T07                                Issued 1996 Oct. 15, 13:10 UT

     The Minor Planet Electronic Circulars contain information on unusual
         minor planets and routine data on comets.  They are published
   on behalf of Commission 20 of the International Astronomical Union by the
          Minor Planet Center, Smithsonian Astrophysical Observatory,
                          Cambridge, MA 02138, U.S.A.

             BMARSDEN@CFA.HARVARD.EDU or GWILLIAMS@CFA.HARVARD.EDU

                                   1996 TD9

Observations:
     J96T09D* C1996 10 12.54431 01 41 43.27 +18 31 23.1          19.8 V      566
     J96T09D  C1996 10 12.55291 01 41 42.04 +18 30 20.9          20.0 V      566
     J96T09D  C1996 10 12.56131 01 41 40.74 +18 29 21.7          19.9 V      566
     J96T09D rC1996 10 13.04503 01 40 50.15 +17 34 00.7                      557
     J96T09D rC1996 10 13.04691 01 40 49.84 +17 33 49.8                      557
     J96T09D rC1996 10 13.05281 01 40 49.10 +17 33 10.9                      557
     J96T09D rC1996 10 13.05475 01 40 48.87 +17 32 57.2          19.1 V      557
     J96T09D  C1996 10 13.92395 01 39 26.86 +16 04 33.6                      557
     J96T09D  C1996 10 13.92584 01 39 26.64 +16 04 22.9                      557
     J96T09D  C1996 10 13.92868 01 39 26.30 +16 04 06.8                      557
     J96T09D  C1996 10 13.93125 01 39 25.94 +16 03 52.5          19.3 V      557
     J96T09D  C1996 10 14.94049 01 37 59.61 +14 34 18.0          18.9 V      046
     J96T09D  C1996 10 14.94237 01 37 59.39 +14 34 09.2                      046
     J96T09D  C1996 10 14.94464 01 37 59.07 +14 33 56.6                      046
     J96T09D  C1996 10 14.94684 01 37 58.80 +14 33 47.0                      046
     J96T09D SC1996 10 15.11014 01 37 42.29 +14 20 19.3                      557
     J96T09D SC1996 10 15.11338 01 37 42.06 +14 20 01.5                      557
     J96T09D SC1996 10 15.11674 01 37 41.71 +14 19 45.2                      557
     J96T09D SC1996 10 15.11968 01 37 41.44 +14 19 32.2                      557
     J96T09D SC1996 10 15.12302 01 37 41.04 +14 19 14.9                      557

Observer details:
046 Klet.  Observers M. Tichy, Z. Moravec.  0.57-m f/5.2 reflector + CCD.
557 Ondrejov.  Observers P. Pravec, L. Sarounova.  0.65-m f/3.6 reflector
    + CCD.
566 Haleakala-NEAT/GEODSS.  Observers E. F. Helin, S. Pravdo, K. J. Lawrence,
    D. L. Rabinowitz for the NEAT team.  1.0-m f/2.2 GEODSS telescope + CCD.

Orbital elements:
1996 TD9
Epoch 1996 Oct. 4.0 TT = JDT 2450360.5                  Williams
M  35.44746              (2000.0)            P               Q
n   0.64077377     Peri.   89.47426     +0.43432962     +0.89991095
a   1.3324970      Node   206.37731     -0.85738249     +0.39976905
e   0.4036475      Incl.    5.03118     -0.27613953     +0.17419816
P   1.54           H   24.0           G   0.15
From 20 observations 1996 Oct. 12-15.

Ephemeris:
1996 TD9                 a,e,i = 1.33, 0.40, 5                   q = 0.7946
Date    TT    R. A. (2000) Decl.     Delta      r     Elong.  Phase     V
1996 10 14    01 39.31   +15 58.4    0.086    1.083   170.6     8.7    19.4
1996 10 16    01 36.69   +13 13.5    0.099    1.096   174.8     4.7    19.6
1996 10 18    01 34.69   +11 06.6    0.113    1.109   178.4     1.4    19.7
1996 10 20    01 33.15   +09 26.6    0.127    1.122   178.1     1.7    20.0
1996 10 22    01 31.95   +08 06.6    0.141    1.135   175.1     4.3    20.4
1996 10 24    01 31.03   +07 01.7    0.155    1.148   172.4     6.6    20.8
1996 10 26    01 30.33   +06 08.8    0.170    1.162   169.8     8.7    21.1
1996 10 28    01 29.82   +05 25.3    0.185    1.175   167.3    10.7    21.4
1996 10 30    01 29.48   +04 49.5    0.200    1.188   165.0    12.5    21.6
1996 11 01    01 29.30   +04 20.1    0.216    1.201   162.7    14.2    21.9
1996 11 03    01 29.26   +03 56.2    0.232    1.214   160.6    15.8    22.1

Gareth V. Williams           (C) Copyright 1996 MPC           M.P.E.C. 1996-T07

Read MPEC 1996-T06 Read MPEC 1996-T08


Our Web policy. Index to the CBAT/MPC/ICQ pages.

MPC